TimeCDT,TemperatureF,Dew PointF,Humidity,Sea Level PressureIn,VisibilityMPH,Wind Direction,Wind SpeedMPH,Gust SpeedMPH,PrecipitationIn,Events,Conditions,WindDirDegrees,DateUTC
12:52 AM,62.1,53.1,72,29.98,10.0,ESE,3.5,-,N/A,,Clear,120,2013-05-01 05:52:00
1:52 AM,55.9,52.0,87,29.98,10.0,SE,4.6,-,N/A,,Clear,140,2013-05-01 06:52:00
2:52 AM,55.9,52.0,87,29.99,10.0,SE,4.6,-,N/A,,Clear,140,2013-05-01 07:52:00
3:52 AM,54.0,50.0,86,30.00,10.0,Calm,Calm,-,N/A,,Clear,0,2013-05-01 08:52:00
4:52 AM,55.0,51.1,86,30.01,10.0,Calm,Calm,-,N/A,,Clear,0,2013-05-01 09:52:00
5:52 AM,53.1,52.0,96,30.03,8.0,Calm,Calm,-,N/A,,Clear,0,2013-05-01 10:52:00
6:13 AM,51.8,51.8,100,30.04,0.5,Calm,Calm,-,N/A,Fog,Fog,0,2013-05-01 11:13:00
6:17 AM,53.6,51.8,94,30.04,2.0,Calm,Calm,-,N/A,,Clear,0,2013-05-01 11:17:00
6:24 AM,53.6,51.8,94,30.05,4.0,Variable,4.6,58.7,N/A,,Clear,0,2013-05-01 11:24:00
6:52 AM,54.0,53.1,97,30.05,7.0,North,-9999.0,-,N/A,,Clear,0,2013-05-01 11:52:00
7:52 AM,63.0,57.9,84,30.06,10.0,East,3.5,-,N/A,,Clear,90,2013-05-01 12:52:00
8:52 AM,69.1,57.9,68,30.07,10.0,Variable,3.5,-,N/A,,Partly Cloudy,0,2013-05-01 13:52:00
9:52 AM,73.9,59.0,59,30.07,10.0,SE,3.5,-,N/A,,Scattered Clouds,130,2013-05-01 14:52:00
10:52 AM,78.1,57.0,48,30.07,10.0,Calm,Calm,-,N/A,,Scattered Clouds,0,2013-05-01 15:52:00
11:52 AM,77.0,61.0,58,30.08,10.0,South,4.6,-,N/A,,Mostly Cloudy,180,2013-05-01 16:52:00
12:52 PM,80.1,62.1,54,30.08,10.0,SSE,8.1,-,N/A,,Overcast,160,2013-05-01 17:52:00
1:52 PM,81.0,63.0,54,30.07,10.0,SSE,9.2,-,N/A,,Partly Cloudy,160,2013-05-01 18:52:00
2:52 PM,80.1,60.1,50,30.07,10.0,SE,9.2,-,N/A,,Mostly Cloudy,140,2013-05-01 19:52:00
3:52 PM,80.1,57.9,47,30.06,10.0,ESE,9.2,-,N/A,,Overcast,110,2013-05-01 20:52:00
4:52 PM,78.1,60.1,54,30.06,10.0,SE,5.8,-,N/A,,Overcast,130,2013-05-01 21:52:00
5:52 PM,75.9,62.1,62,30.06,10.0,Variable,4.6,-,N/A,,Overcast,0,2013-05-01 22:52:00
6:52 PM,75.0,60.1,60,30.06,10.0,ESE,3.5,-,N/A,,Clear,120,2013-05-01 23:52:00
7:52 PM,69.1,62.1,78,30.07,10.0,East,4.6,-,N/A,,Mostly Cloudy,80,2013-05-02 00:52:00
8:52 PM,68.0,60.1,76,30.08,10.0,Calm,Calm,-,N/A,,Clear,0,2013-05-02 01:52:00
9:52 PM,63.0,60.1,90,30.09,10.0,Calm,Calm,-,N/A,,Clear,0,2013-05-02 02:52:00
10:52 PM,62.1,59.0,90,30.08,8.0,Calm,Calm,-,N/A,,Clear,0,2013-05-02 03:52:00
11:52 PM,60.1,57.9,93,30.08,5.0,Calm,Calm,-,N/A,,Clear,0,2013-05-02 04:52:00